Overview Statistics Trail Chart Weather Telemetry Raw packets
 

This is the latest recevied weather packets stored in our database for station/object K3RUP-1. If no packets are shown the sender has not sent any weather packets the latest 10 day(s).

<< 7 8 9 10 11 12 13 >>
Time Temp. Humidity Pressure Rain* Wind** Luminosity Snow
1788645088 26.11° C 74% 1009.8 hPa 0 mm - 42 W/m² -
1788644784 26.11° C 74% 1009.9 hPa 0 mm - 35 W/m² -
1788644483 26.11° C 71% 1009.8 hPa 0 mm - 35 W/m² -
1788644179 26.11° C 71% 1009.8 hPa 0 mm - 47 W/m² -
1788643874 26.67° C 70% 1009.6 hPa 0 mm - 58 W/m² -
1788643569 26.67° C 68% 1009.6 hPa 0 mm - 161 W/m² -
1788643269 26.67° C 69% 1009.5 hPa 0 mm - 67 W/m² -
1788642964 26.67° C 67% 1009.3 hPa 0 mm - 42 W/m² -
1788642659 26.67° C 67% 1009.4 hPa 0 mm - 46 W/m² -
1788642355 26.67° C 69% 1009.4 hPa 0 mm - 109 W/m² -
1788642050 26.67° C 68% 1009.5 hPa 0 mm - 75 W/m² -
1788641749 26.67° C 68% 1009.3 hPa 0 mm - 99 W/m² -
1788641449 26.67° C 67% 1009.3 hPa 0 mm - 140 W/m² -
1788641144 26.67° C 68% 1009.5 hPa 0 mm - 223 W/m² -
1788640839 26.67° C 66% 1009.6 hPa 0 mm - 85 W/m² -
1788640538 26.67° C 67% 1009.7 hPa 0 mm - 100 W/m² -
1788640234 26.11° C 68% 1009.7 hPa 0 mm - 58 W/m² -
1788639929 26.67° C 67% 1009.6 hPa 0 mm - 67 W/m² -
1788639625 26.67° C 67% 1009.6 hPa 0 mm - 113 W/m² -
1788639320 26.67° C 66% 1009.6 hPa 0 mm - 119 W/m² -
1788639019 26.67° C 69% 1009.5 hPa 0 mm - 220 W/m² -
1788638715 26.67° C 68% 1009.6 hPa 0 mm - 271 W/m² -
1788638414 26.67° C 66% 1009.5 hPa 0 mm - 285 W/m² -
1788638109 26.67° C 67% 1009.7 hPa 0 mm - 96 W/m² -
1788637804 26.67° C 68% 1009.7 hPa 0 mm - 98 W/m² -

* Rain latest hour (hover to see other rain measurements)
** Current wind speed in m/s (hover to see current wind gust speed)